Monticello, AR

8:13 AM CDT on May 30, 2017 (GMT -0500)
Monticello Municipal-Ellis

Weather History for KLLQ - October, 2014

Change the Weather History Date:

Sunday, October 5, 2014

  Actual Average Record
Temperature  
Mean Temperature 67 °F -  
Max Temperature 81 °F 81 °F 94 °F (1986)
Min Temperature 53 °F 52 °F 32 °F (1987)
Cooling Degree Days 2    
Growing Degree Days 17 (Base 50)    
Moisture  
Dew Point 48 °F    
Average Humidity 50    
Maximum Humidity 71    
Minimum Humidity 32    
Precipitation  
Precipitation 0.00 in - - ()
Sea Level Pressure  
Sea Level Pressure 29.92 in    
Wind  
Wind Speed 9 mph (SSW)    
Max Wind Speed 17 mph    
Max Gust Speed 24 mph    
Visibility 10 miles    
Events      
Averages and records for this station are not official NWS values.
T = Trace of Precipitation, MM = Missing Value Source: NWS Daily Summary

Daily Weather History Graph

Daily Weather History Graph

Search for Another Location

Airport or City:

Trip Planner

Search our weather history database for the weather conditions in past years. The results will help you decide how hot, cold, wet, or windy it might be!

Date:

Astronomy

Oct. 05, 2014 Rise Set
Actual Time 7:04 AM CDT 6:45 PM CDT
Civil Twilight 6:39 AM CDT 7:10 PM CDT
Nautical Twilight 6:10 AM CDT 7:39 PM CDT
Astronomical Twilight 5:41 AM CDT 8:08 PM CDT
Moon 4:56 PM CDT (10/5) 3:50 AM CDT (10/5)
Length of Visible Light 12h 31m
Length of Day
11h 41m
Waxing Gibbous, 89% of the Moon is Illuminated
Oct 5
Waxing Gibbous
Oct 8
Full
Oct 15
Last Quarter
Oct 23
New
Oct 30
First Quarter

Hourly Weather History & Observations

Time (CDT) Temp. Dew Point Humidity Pressure Visibility Wind Dir Wind Speed Gust Speed Precip Events Conditions
12:53 AM 53.1 °F 44.1 °F 71% 29.99 in 10.0 mi WSW 3.5 mph - N/A   Clear
1:53 AM 59.0 °F 39.9 °F 49% 29.99 in 10.0 mi SW 6.9 mph - N/A   Clear
2:53 AM 60.1 °F 42.1 °F 51% 29.97 in 10.0 mi SW 9.2 mph - N/A   Clear
3:53 AM 59.0 °F 42.1 °F 53% 29.96 in 10.0 mi SSW 9.2 mph - N/A   Clear
4:53 AM 55.9 °F 44.1 °F 64% 29.96 in 10.0 mi SW 6.9 mph - N/A   Clear
5:53 AM 57.0 °F 43.0 °F 59% 29.96 in 10.0 mi SW 9.2 mph - N/A   Clear
6:53 AM 57.0 °F 43.0 °F 59% 29.97 in 10.0 mi SW 10.4 mph - N/A   Clear
7:53 AM 57.9 °F 44.1 °F 60% 29.96 in 10.0 mi SW 11.5 mph - N/A   Clear
8:53 AM 62.1 °F 45.0 °F 53% 29.96 in 10.0 mi SW 10.4 mph 23.0 mph N/A   Clear
9:53 AM 66.0 °F 45.0 °F 47% 29.97 in 10.0 mi WSW 13.8 mph 21.9 mph 0.00 in   Clear
10:53 AM 72.0 °F 44.1 °F 37% 29.96 in 10.0 mi SSW 13.8 mph 24.2 mph N/A   Clear
11:53 AM 73.9 °F 46.0 °F 37% 29.96 in 10.0 mi WSW 15.0 mph 23.0 mph N/A   Clear
12:53 PM 75.0 °F 45.0 °F 34% 29.93 in 10.0 mi SSW 11.5 mph 23.0 mph 0.00 in   Clear
1:53 PM 79.0 °F 46.9 °F 32% 29.89 in 10.0 mi SW 11.5 mph 19.6 mph N/A   Clear
2:53 PM 80.1 °F 50.0 °F 35% 29.87 in 10.0 mi SSW 17.3 mph 24.2 mph 0.00 in   Clear
3:53 PM 81.0 °F 52.0 °F 36% 29.86 in 10.0 mi SSW 9.2 mph - N/A   Clear
4:53 PM 80.1 °F 52.0 °F 38% 29.86 in 10.0 mi SSW 12.7 mph - N/A   Clear
5:53 PM 77.0 °F 51.1 °F 40% 29.86 in 10.0 mi SSW 10.4 mph - N/A   Clear
6:53 PM 73.0 °F 52.0 °F 48% 29.86 in 10.0 mi SSW 5.8 mph - N/A   Clear
7:53 PM 69.1 °F 53.1 °F 57% 29.87 in 10.0 mi SSE 4.6 mph - 0.00 in   Clear
8:53 PM 68.0 °F 53.1 °F 59% 29.88 in 10.0 mi South 5.8 mph - N/A   Clear
9:53 PM 66.9 °F 53.1 °F 61% 29.90 in 10.0 mi South 5.8 mph - N/A   Clear
10:53 PM 66.9 °F 55.0 °F 66% 29.90 in 10.0 mi South 6.9 mph - N/A   Clear
11:53 PM 68.0 °F 55.9 °F 65% 29.90 in 10.0 mi SSW 6.9 mph - N/A   Clear